Le nostre stazioni meteo in Italia

Pubblicità
Il mio iltempo24.it
Fyvie castle, Gran Bretagna (99010): Temperatura & dewpoint: 18.06.2018 20:00:00 - 24.06.2018 20:00:00 (BST)Fyvie castle, Gran Bretagna (99010): precipitazioni: 18.06.2018 20:00:00 - 24.06.2018 20:00:00 (BST)
Data & Tempo tt [°C] td [°C] rr [mm]
24.06.2018 20:00:00 14,7 9,9 0,0
24.06.2018 19:00:00 16,5 10,1 0,0
24.06.2018 18:00:00 17,3 10,5 0,0
24.06.2018 17:00:00 17,7 11,0 0,0
24.06.2018 16:00:00 18,4 11,8 0,0
24.06.2018 15:00:00 18,5 12,2 0,0
24.06.2018 14:00:00 18,5 12,1 0,0
24.06.2018 13:00:00 16,6 11,3 0,0
24.06.2018 12:00:00 16,9 11,2 0,0
24.06.2018 11:00:00 15,6 11,0 0,0
24.06.2018 10:00:00 14,1 10,4 0,0
24.06.2018 09:00:00 12,9 10,1 0,0
24.06.2018 08:00:00 12,0 10,6 0,0
24.06.2018 07:00:00 11,1 10,3 0,0
24.06.2018 06:00:00 10,6 10,0 0,0
24.06.2018 05:00:00 10,5 9,8 0,0
24.06.2018 04:00:00 10,4 9,8 0,0
24.06.2018 03:00:00 10,0 9,2 0,0
24.06.2018 02:00:00 10,9 10,0 0,0
24.06.2018 01:00:00 11,6 9,7 0,0
24.06.2018 00:00:00 13,2 10,2 0,0
23.06.2018 23:00:00 13,8 10,1 0,0
23.06.2018 22:00:00 14,6 10,3 0,0
23.06.2018 21:00:00 15,3 10,7 0,0
23.06.2018 20:00:00 15,1 12,1 0,0
23.06.2018 19:00:00 15,0 11,5 0,0
23.06.2018 18:00:00 15,2 10,1 0,0
23.06.2018 17:00:00 16,3 10,1 0,0
23.06.2018 16:00:00 17,0 8,9 0,0
23.06.2018 15:00:00 17,5 8,1 0,0
23.06.2018 14:00:00 17,2 7,2 0,0
23.06.2018 13:00:00 17,2 8,3 0,0
23.06.2018 12:00:00 15,9 6,9 0,0
23.06.2018 11:00:00 13,7 7,5 0,0
23.06.2018 10:00:00 13,0 6,6 0,0
23.06.2018 09:00:00 12,6 6,8 0,0
23.06.2018 08:00:00 11,6 7,3 0,0
23.06.2018 07:00:00 10,6 6,7 0,0
23.06.2018 06:00:00 10,2 6,5 0,0
23.06.2018 05:00:00 9,0 6,9 0,0
23.06.2018 04:00:00 8,5 6,9 0,0
23.06.2018 03:00:00 7,7 6,5 0,0
23.06.2018 02:00:00 7,3 6,5 0,0
23.06.2018 01:00:00 7,2 6,2 0,0
23.06.2018 00:00:00 8,0 6,2 0,0
22.06.2018 23:00:00 10,0 6,4 0,0
22.06.2018 22:00:00 12,8 6,3 0,0
22.06.2018 21:00:00 12,9 7,6 0,0
22.06.2018 20:00:00 14,1 7,1 0,0
22.06.2018 19:00:00 14,6 7,2 0,0
22.06.2018 18:00:00 15,0 7,1 0,0
22.06.2018 17:00:00 17,5 9,0 0,0
22.06.2018 16:00:00 16,1 8,0 0,0
22.06.2018 15:00:00 16,3 9,2 0,0
22.06.2018 14:00:00 14,4 8,4 0,0
22.06.2018 13:00:00 13,4 8,0 0,0
22.06.2018 12:00:00 13,6 7,4 0,0
22.06.2018 11:00:00 13,5 7,0 0,0
22.06.2018 10:00:00 12,0 6,0 0,0
22.06.2018 09:00:00 11,5 5,7 0,0
22.06.2018 08:00:00 10,5 6,0 0,0
22.06.2018 07:00:00 9,9 6,2 0,0
22.06.2018 06:00:00 9,2 5,8 0,0
22.06.2018 05:00:00 8,4 5,4 0,0
22.06.2018 04:00:00 8,2 5,2 0,0
22.06.2018 03:00:00 8,3 5,4 0,0
22.06.2018 02:00:00 8,4 5,7 0,0
22.06.2018 01:00:00 8,8 5,5 0,0
22.06.2018 00:00:00 9,2 5,7 0,0
21.06.2018 23:00:00 9,8 5,8 0,0
21.06.2018 22:00:00 10,5 4,7 0,0
21.06.2018 21:00:00 11,6 4,4 0,0
21.06.2018 20:00:00 12,6 5,4 0,0
21.06.2018 19:00:00 13,4 4,9 0,0
21.06.2018 18:00:00 13,2 4,1 0,0
21.06.2018 17:00:00 14,4 4,8 0,0
21.06.2018 16:00:00 12,7 3,9 0,0
21.06.2018 15:00:00 12,6 3,2 0,0
21.06.2018 14:00:00 12,2 4,1 0,0
21.06.2018 13:00:00 12,8 4,1 0,0
21.06.2018 12:00:00 12,2 4,4 0,0
21.06.2018 11:00:00 11,0 6,3 0,0
21.06.2018 10:00:00 10,6 6,1 0,0
21.06.2018 09:00:00 10,6 5,6 0,0
21.06.2018 08:00:00 9,1 6,2 0,0
21.06.2018 07:00:00 8,2 6,2 0,0
21.06.2018 06:00:00 7,7 6,3 0,0
21.06.2018 05:00:00 7,3 6,2 0,2
21.06.2018 04:00:00 7,2 6,2 0,0
21.06.2018 03:00:00 6,7 5,9 0,0
21.06.2018 02:00:00 6,7 6,0 0,4
21.06.2018 01:00:00 6,1 5,1 3,6
21.06.2018 00:00:00 7,0 5,8 3,2
20.06.2018 23:00:00 8,2 7,6 0,0
20.06.2018 22:00:00 8,8 7,8 0,0
20.06.2018 21:00:00 9,5 8,5 0,0
20.06.2018 20:00:00 9,8 9,0 1,6
20.06.2018 19:00:00 10,3 8,9 0,8
20.06.2018 18:00:00 11,0 9,4 0,2
20.06.2018 17:00:00 10,9 9,3 2,4
20.06.2018 16:00:00 12,4 6,4 0,2
20.06.2018 15:00:00 13,3 6,1 0,0
20.06.2018 14:00:00 12,2 6,2 0,0
20.06.2018 13:00:00 12,1 6,6 0,0
20.06.2018 12:00:00 11,4 7,0 0,0
20.06.2018 11:00:00 10,9 8,1 0,0
20.06.2018 10:00:00 10,4 8,2 0,0
20.06.2018 09:00:00 9,8 8,9 0,2
20.06.2018 08:00:00 9,2 8,9 2,4
20.06.2018 07:00:00 8,9 8,6 2,8
20.06.2018 06:00:00 9,1 8,7 0,4
20.06.2018 05:00:00 9,1 8,7 0,2
20.06.2018 04:00:00 9,2 8,8 0,2
20.06.2018 03:00:00 9,1 8,7 0,0
20.06.2018 02:00:00 9,2 8,7 0,4
20.06.2018 01:00:00 9,4 8,8 0,6
20.06.2018 00:00:00 9,6 8,7 0,8
19.06.2018 23:00:00 10,2 9,2 1,0
19.06.2018 22:00:00 10,9 9,2 0,2
19.06.2018 21:00:00 11,9 9,8 0,6
19.06.2018 20:00:00 13,1 7,3 0,0
19.06.2018 19:00:00 15,1 6,1 0,0
19.06.2018 18:00:00 16,5 3,5 0,0
19.06.2018 17:00:00 17,2 4,0 0,0
19.06.2018 16:00:00 16,9 4,2 0,0
19.06.2018 15:00:00 17,7 5,9 0,0
19.06.2018 14:00:00 18,1 4,3 0,0
19.06.2018 13:00:00 16,5 4,7 0,0
19.06.2018 12:00:00 16,2 4,4 0,0
19.06.2018 11:00:00 14,7 3,9 0,0
19.06.2018 10:00:00 13,2 2,9 0,0
19.06.2018 09:00:00 12,2 3,8 0,0
19.06.2018 08:00:00 11,0 4,6 0,0
19.06.2018 07:00:00 10,1 4,2 0,0
19.06.2018 06:00:00 9,3 4,1 0,0
19.06.2018 05:00:00 8,4 4,2 0,0
19.06.2018 04:00:00 8,6 3,7 0,0
19.06.2018 03:00:00 9,2 3,5 0,0
19.06.2018 02:00:00 9,3 3,7 0,0
19.06.2018 01:00:00 9,4 3,0 0,0
19.06.2018 00:00:00 10,0 3,0 0,0
18.06.2018 23:00:00 10,4 3,7 0,0
18.06.2018 22:00:00 11,8 3,4 0,0
18.06.2018 21:00:00 13,1 4,4 0,0
18.06.2018 20:00:00 14,2 6,0 0,0

tt = Temperatura
td = dewpoint
rr = precipitazioni

Stazioni seguenti

WeatherPro
AMSI
MeteoEarth